Lapse_Rate
7.0 6.8 6.5 6.3 6.1 6.0 5.9 5.6 5.6 5.5 5.5 5.6 5.7 5.9 5.8 6.0 6.1 6.1 6.3 6.3 6.2 6.2 6.1 6.0 6.0 6.1 6.3 6.4 6.3 6.5 6.6 6.5 6.4 6.5 6.6 6.3 6.2 6.3 6.1 6.1 6.1 6.1 6.2
7.1 6.9 6.4 6.2 6.1 6.0 5.8 5.7 5.7 5.6 5.6 5.8 5.8 5.9 6.0 6.2 6.3 6.3 6.3 6.2 6.1 6.1 6.1 6.1 6.1 6.1 6.1 6.1 6.2 6.3 6.4 6.5 6.6 6.5 6.3 6.4 6.3 6.3 6.3 6.2 5.9 5.8 5.7
7.0 6.8 6.4 6.1 6.2 6.0 5.9 5.7 5.6 5.7 5.8 5.9 5.9 6.0 6.3 6.4 6.4 6.4 6.4 6.3 6.2 6.2 6.0 6.0 6.1 6.0 6.1 6.1 6.2 6.2 6.1 6.2 6.3 6.4 6.4 6.3 6.2 6.2 6.4 6.3 6.1 6.0 5.8
6.8 6.6 6.5 6.3 6.2 6.1 6.0 5.7 5.6 5.8 6.0 6.0 6.0 6.2 6.4 6.5 6.4 6.4 6.3 6.3 6.1 6.1 6.1 6.0 5.9 5.9 6.0 6.1 6.1 6.1 6.1 6.0 6.0 6.2 6.2 6.3 6.2 6.2 6.1 6.1 6.3 6.1 6.0
6.7 6.6 6.5 6.4 6.3 6.2 5.9 5.8 6.0 6.1 6.1 6.1 6.2 6.2 6.4 6.3 6.3 6.1 6.1 6.1 6.0 6.0 6.0 6.0 5.9 5.9 5.9 5.8 5.8 5.9 5.9 5.9 6.0 5.8 5.9 6.1 6.2 6.3 6.2 6.2 6.0 6.0 6.0
6.5 6.5 6.4 6.4 6.4 6.3 6.1 6.1 6.1 6.1 6.1 6.0 6.0 6.1 6.3 6.3 6.2 6.0 5.9 5.9 5.9 5.8 5.7 5.7 5.7 5.8 5.9 5.9 5.9 5.9 5.9 6.0 6.0 6.0 5.8 5.6 5.8 5.8 6.0 6.0 6.1 6.0 5.8
6.4 6.3 6.4 6.5 6.5 6.4 6.3 6.2 6.1 6.1 6.1 6.0 5.9 6.1 6.2 6.2 6.1 5.9 5.9 6.0 5.8 5.7 5.5 5.5 5.6 5.6 5.6 5.7 5.8 5.9 6.0 6.0 6.1 6.0 5.9 5.9 5.7 5.5 5.7 5.8 5.9 6.0 6.0
6.2 6.3 6.6 6.4 6.3 6.2 6.2 6.2 6.2 6.2 6.1 6.2 6.2 6.2 6.1 6.1 6.0 6.0 5.9 5.8 5.6 5.5 5.5 5.6 5.6 5.7 5.7 5.8 5.9 6.0 6.1 6.3 6.2 6.3 6.2 5.8 5.7 5.9 5.7 5.6 5.8 5.9 6.1
6.1 6.3 6.4 6.3 6.4 6.1 6.2 6.2 6.3 6.4 6.4 6.4 6.2 6.1 6.1 6.1 6.0 5.9 5.8 5.6 5.4 5.4 5.6 5.7 5.8 5.8 5.6 5.6 5.7 5.8 6.1 6.2 6.3 6.5 6.5 6.4 6.1 5.7 5.5 5.6 5.5 5.6 5.6
6.1 6.1 6.2 6.1 6.1 6.1 6.3 6.3 6.3 6.2 6.3 6.3 6.1 6.0 5.7 5.8 5.9 5.9 5.9 5.8 5.6 5.7 5.9 5.9 5.6 5.4 5.4 5.5 5.6 5.6 5.8 6.0 6.2 6.3 6.3 6.3 6.3 6.2 5.9 5.6 5.5 5.5 5.4
6.1 5.8 5.8 5.9 6.0 5.9 6.1 6.2 6.2 6.2 6.2 6.2 6.2 6.2 6.1 5.8 5.8 5.8 5.9 5.8 5.7 5.7 5.6 5.5 5.4 5.4 5.4 5.4 5.2 5.2 5.5 5.9 6.0 6.1 6.2 6.0 5.8 5.8 5.9 5.7 5.6 5.5 5.5
5.8 5.9 5.8 5.9 5.6 5.6 5.5 5.8 6.0 6.3 6.6 6.6 6.5 6.3 6.1 6.1 6.0 5.8 5.8 5.7 5.6 5.5 5.4 5.2 5.2 5.2 5.2 5.2 5.2 5.0 5.0 5.1 5.5 5.8 6.0 6.0 6.1 6.0 6.0 6.0 5.8 5.7 5.4
5.7 5.8 5.7 5.7 5.5 5.5 5.3 5.4 5.9 6.1 6.2 6.5 6.2 6.0 6.0 6.0 5.9 5.7 5.5 5.7 5.6 5.5 5.4 5.3 5.3 5.3 5.3 5.2 5.3 5.3 5.4 5.4 5.5 5.7 5.9 6.1 6.3 6.1 5.7 5.6 5.7 5.5 5.6
5.8 5.7 5.6 5.5 5.2 5.2 5.5 5.9 6.1 6.4 6.4 6.2 6.1 6.0 6.0 6.0 5.8 5.7 5.6 5.6 5.7 5.7 5.6 5.6 5.6 5.5 5.4 5.4 5.3 5.6 5.7 5.8 5.8 5.9 6.3 6.2 6.0 5.8 5.7 5.4 5.2 5.1 4.8
5.9 5.5 5.2 5.2 5.4 5.5 5.9 5.9 6.0 5.9 6.0 5.8 5.6 5.4 5.5 5.7 5.6 5.5 5.6 5.6 5.9 6.1 6.0 6.0 6.0 6.0 5.8 5.8 5.7 5.7 5.9 6.0 6.1 5.9 5.9 5.9 5.5 5.2 5.4 5.2 5.2 4.7 4.5
5.0 5.1 5.4 5.2 5.2 5.4 5.4 5.4 5.6 5.7 5.7 5.5 5.5 5.4 5.4 5.4 5.7 5.6 5.7 5.8 6.0 6.4 6.6 6.6 6.5 6.3 6.2 6.0 5.8 5.7 6.0 6.3 6.0 5.9 5.8 6.0 5.9 5.4 5.0 5.0 4.9 4.5 4.3
5.1 5.0 4.8 4.9 5.3 5.4 5.3 5.3 5.2 5.3 5.5 5.5 5.4 5.2 5.4 5.7 5.8 5.7 5.7 6.2 6.4 6.4 6.4 6.4 6.3 6.2 6.1 6.0 5.9 5.9 5.9 6.1 6.3 6.1 6.1 6.1 5.8 5.7 5.5 5.1 4.7 4.4 4.3
4.9 5.0 4.7 4.6 4.6 4.8 5.0 5.0 5.1 5.3 5.3 5.3 5.3 5.2 5.3 5.6 5.8 6.0 6.3 6.4 6.5 6.6 6.7 6.5 6.3 6.3 6.4 6.3 6.2 6.1 6.2 6.5 6.7 6.5 6.4 6.3 5.9 5.8 5.9 5.6 5.3 5.2 5.3
4.8 4.8 4.3 4.3 4.5 4.7 4.6 4.7 5.1 5.2 5.3 5.3 5.4 5.5 5.9 6.0 5.8 5.8 6.0 6.2 6.3 6.4 6.4 6.5 6.5 6.5 6.6 6.5 6.4 6.3 6.3 6.4 6.5 6.4 6.2 6.1 6.0 5.8 5.7 5.4 5.6 5.5 5.3
4.3 4.0 4.1 4.5 4.6 4.9 5.1 5.1 5.0 5.2 5.4 5.7 5.8 5.9 6.0 5.7 5.6 5.9 6.0 6.0 5.9 5.9 6.0 6.1 6.1 6.1 6.2 6.2 6.1 6.0 5.9 6.0 6.1 6.0 5.8 5.7 5.6 5.5 5.5 5.4 5.5 5.4 5.2
4.3 4.4 4.6 4.8 4.8 5.0 5.1 5.2 5.4 5.7 5.9 5.9 5.9 5.6 5.5 5.6 5.7 5.7 5.6 5.6 5.6 5.6 5.6 5.7 5.7 5.7 5.7 5.8 5.7 5.7 5.7 5.7 5.8 5.9 5.8 5.5 5.4 5.2 5.1 4.9 5.2 5.3 4.8
4.5 4.6 4.8 4.8 5.1 5.2 5.5 5.6 5.7 5.9 5.9 5.8 5.9 6.1 6.0 6.0 6.0 6.0 5.9 5.7 5.6 5.5 5.6 5.5 5.6 5.6 5.5 5.3 5.3 5.2 5.3 5.5 5.7 6.0 6.0 5.6 5.3 5.2 5.1 5.1 5.1 5.3 5.0
5.1 5.1 5.3 5.6 5.7 5.8 5.8 5.8 5.7 5.7 5.7 6.0 6.0 6.0 5.9 5.9 5.9 5.8 5.8 5.7 5.6 5.4 5.4 5.4 5.5 5.5 5.4 5.3 5.3 5.3 5.3 5.2 5.4 5.8 6.1 5.7 5.5 5.5 5.3 5.3 5.1 4.6 4.7
5.5 5.7 6.0 6.0 5.8 5.6 5.5 5.5 5.7 5.8 5.9 6.0 5.9 5.9 5.8 5.7 5.7 5.5 5.4 5.4 5.5 5.3 5.2 5.2 5.2 5.3 5.3 5.3 5.2 5.2 5.2 5.2 5.3 5.8 6.1 5.8 5.5 5.4 5.4 5.3 4.8 4.7 4.8
5.9 5.9 5.9 5.7 5.5 5.5 5.7 5.6 5.7 5.7 5.8 5.8 5.7 5.7 5.7 5.6 5.5 5.3 5.2 5.3 5.3 5.2 5.1 5.0 5.0 5.1 5.2 5.2 5.1 5.2 5.4 5.3 5.2 5.4 5.9 6.0 5.6 5.6 5.2 5.1 5.0 4.8 4.6
5.7 5.6 5.5 5.6 5.7 5.7 5.6 5.5 5.5 5.5 5.5 5.5 5.5 5.5 5.5 5.4 5.3 5.2 5.3 5.2 5.1 5.2 5.2 4.9 4.8 4.9 5.0 5.2 5.2 4.8 4.9 5.1 5.1 4.9 5.7 5.9 5.7 5.5 5.4 5.5 5.3 4.9 4.7
Wind_Speed
7 8 9 9 8 7 8 7 7 5 3 2 3 2 2 2 3 8 12 13 13 14 12 9 9 9 6 6 6 3 5 7 8 2 3 4 8 10 8 8 8 12 15
7 8 8 8 9 8 8 7 6 5 4 2 2 2 3 3 4 5 9 11 12 13 11 9 5 7 5 7 7 6 4 3 6 3 1 3 1 5 7 6 7 9 11
11 10 11 11 8 8 8 7 7 6 4 4 3 3 4 3 2 1 2 4 9 11 12 11 8 6 4 4 4 5 6 3 3 6 3 3 2 3 3 7 5 7 6
7 8 11 8 9 7 7 7 7 6 4 4 3 4 3 3 2 2 2 3 8 10 11 11 10 7 5 5 4 4 3 3 4 3 4 3 2 2 2 2 3 5 7
8 10 12 12 7 8 7 7 7 6 4 4 4 3 2 2 2 3 4 3 4 8 10 10 9 6 5 4 5 5 5 3 2 2 2 2 1 2 1 3 2 2 4
7 5 6 7 6 6 6 6 7 5 4 4 3 4 5 5 4 2 3 2 1 3 6 7 7 6 5 4 3 4 4 3 3 2 3 2 1 1 0 2 3 3 2
6 6 8 7 7 7 7 6 7 6 5 5 4 4 4 4 5 4 3 3 1 1 2 3 4 3 3 4 4 3 3 3 2 2 2 2 1 1 1 1 2 1 1
4 4 4 6 7 7 7 7 7 6 6 5 5 4 5 3 3 3 2 2 2 2 1 3 3 4 4 4 5 2 2 2 1 2 2 1 1 1 1 1 1 2 1
11 11 10 7 5 5 5 5 6 5 5 5 5 4 4 5 4 4 3 2 2 2 2 1 0 2 3 3 3 2 2 2 1 2 2 1 1 2 1 1 1 2 1
14 12 13 12 9 6 4 5 4 5 5 5 5 4 5 5 5 4 4 4 3 2 1 1 1 2 3 3 2 2 2 1 1 1 2 2 2 3 2 1 1 1 3
12 9 9 9 9 10 9 7 5 4 4 4 4 4 4 3 3 2 3 3 2 1 2 2 2 3 3 3 2 2 2 1 0 0 1 1 2 2 2 2 1 1 1
10 8 9 8 8 8 8 7 7 8 6 5 5 5 4 1 0 2 3 3 1 1 1 2 3 4 3 3 3 4 4 4 4 4 2 2 1 3 3 2 2 2 2
8 8 9 9 9 8 7 6 7 7 5 5 4 3 2 3 3 3 3 2 3 3 2 2 4 4 4 4 4 4 5 5 5 5 4 4 3 3 2 2 3 2 1
8 9 9 8 8 7 7 7 7 5 6 6 5 4 4 4 1 1 4 4 4 4 4 4 4 4 5 5 5 5 5 5 4 4 4 5 5 5 4 4 4 2 3
9 8 8 7 6 6 6 6 6 5 5 5 4 4 3 5 4 2 4 3 3 4 4 5 5 5 5 5 5 5 5 5 5 5 4 5 7 11 9 4 4 3 3
7 7 7 6 5 5 5 6 6 6 4 4 4 4 4 4 3 4 4 4 4 5 5 5 5 5 5 12 14 12 6 6 6 5 5 5 10 11 15 14 15 11 6
6 7 7 6 4 5 5 5 6 6 6 5 5 5 4 4 4 4 4 4 5 5 6 6 5 6 6 14 17 17 7 7 6 6 5 5 5 11 6 11 15 13 14
6 5 4 4 4 4 5 5 5 5 5 6 5 5 5 5 4 4 4 4 4 5 6 7 7 6 6 15 17 18 9 5 6 6 6 6 6 8 7 5 6 6 6
2 2 3 3 4 4 5 5 5 4 4 5 5 5 5 5 5 6 5 5 5 5 5 6 6 6 6 15 18 16 7 6 7 7 6 6 7 14 19 10 8 8 7
3 3 4 3 4 5 4 4 5 4 4 5 5 5 5 5 6 6 7 5 5 7 6 8 6 10 9 15 19 15 7 7 6 6 8 17 14 19 20 11 7 9 8
4 4 5 4 5 5 3 4 4 5 5 7 6 6 5 6 6 6 4 5 6 7 6 8 6 7 9 10 19 20 10 8 7 7 7 7 18 21 22 22 9 10 8
5 5 4 5 5 6 4 5 6 6 8 7 8 7 6 7 7 7 7 6 6 6 6 6 7 6 8 15 17 20 20 18 10 10 8 9 18 19 21 16 16 20 15
5 5 4 4 5 6 5 6 8 8 7 7 8 8 8 8 9 9 8 6 5 4 6 6 7 7 7 7 17 19 19 20 12 8 13 20 19 20 17 21 18 18 5
6 3 3 6 6 5 8 7 8 7 8 9 7 7 6 9 6 5 6 6 4 4 6 7 8 7 7 7 7 8 8 14 12 13 8 9 14 18 14 10 9 4 3
5 3 5 7 7 6 8 7 10 7 8 7 6 7 8 7 7 7 6 7 7 8 8 8 9 9 8 9 15 13 8 8 11 11 5 5 6 5 4 6 6 5 6
5 7 8 9 10 9 9 9 7 8 6 8 8 6 7 6 7 6 7 16 19 22 23 24 18 10 18 22 23 23 23 23 21 10 6 7 6 6 5 4 6 6 8
Wind_Direction
194 174 167 161 152 152 152 162 157 165 152 135 129 133 106 85 55 59 62 54 53 49 39 38 35 26 34 17 15 351 14 14 354 25 12 52 65 55 48 46 43 36 34
166 169 167 168 173 161 165 164 167 164 167 157 156 135 141 102 107 85 68 63 61 57 56 46 35 36 32 30 18 13 4 7 13 15 321 14 86 60 57 50 46 43 35
184 176 178 183 164 169 173 167 168 165 158 148 118 89 88 87 98 66 68 66 80 78 73 68 60 42 39 33 25 17 26 10 356 30 24 15 16 344 53 49 51 55 42
175 182 180 175 182 181 164 162 157 154 156 153 147 161 169 163 194 142 123 84 84 79 75 71 64 58 45 38 19 27 26 36 20 346 14 35 348 342 313 95 37 54 50
180 180 185 188 172 153 168 160 147 147 142 150 162 159 145 117 114 106 122 98 64 72 74 70 58 48 42 33 31 17 28 37 51 13 341 17 332 51 322 293 339 82 48
186 163 132 128 140 145 147 147 144 143 138 127 115 148 149 147 133 131 130 136 86 45 61 70 68 58 49 38 17 7 21 26 55 39 24 17 41 37 334 291 322 322 91
143 159 154 153 148 159 152 147 146 149 141 117 96 114 132 144 155 161 164 159 113 22 31 56 50 40 33 36 36 31 28 13 26 11 356 359 321 273 213 173 274 305 337
98 132 154 149 152 152 152 151 158 149 147 134 121 115 120 127 138 154 153 154 136 154 69 54 45 27 24 19 24 24 344 33 7 355 4 323 345 333 254 208 149 322 281
45 47 44 51 92 127 151 154 149 149 157 146 141 134 134 142 151 147 140 139 139 169 166 163 49 15 16 26 21 8 307 338 351 343 349 337 339 349 310 263 210 173 299
56 46 45 41 37 44 95 110 141 154 159 157 159 162 156 151 148 151 158 168 189 200 209 292 306 329 340 347 9 350 323 281 319 97 44 7 348 350 338 286 269 262 195
71 55 47 39 38 41 40 41 44 108 138 159 155 148 148 147 154 167 168 184 185 286 295 285 287 307 319 319 307 293 259 186 241 13 65 347 350 345 334 307 282 247 208
70 66 60 50 45 39 34 34 35 52 39 47 72 72 74 67 56 294 223 165 165 264 289 313 305 298 295 298 294 295 302 263 237 219 217 257 342 320 308 299 271 241 226
66 56 49 41 40 35 28 28 32 24 23 50 34 17 345 320 273 252 211 92 335 266 268 282 283 274 263 261 264 267 275 281 268 248 226 228 225 260 269 272 267 265 262
51 48 46 32 27 27 24 25 25 20 10 8 6 347 330 318 72 8 262 242 232 249 259 266 271 265 261 255 251 255 261 269 259 253 241 240 231 231 237 249 249 245 265
60 55 46 23 19 12 14 18 10 13 3 356 342 336 322 321 237 256 295 304 273 273 278 276 266 262 259 260 248 252 244 236 244 262 260 243 244 250 233 228 236 235 249
65 50 50 28 8 358 9 356 351 349 349 337 328 312 300 279 307 281 248 251 267 268 265 266 263 260 261 266 273 270 215 231 233 240 252 252 266 270 259 250 244 218 217
42 34 19 12 345 359 360 344 340 334 340 337 335 329 340 332 322 296 289 280 278 281 277 275 268 264 258 274 278 274 264 213 236 229 243 266 258 260 235 259 263 268 260
41 25 6 347 328 337 340 335 340 344 342 343 337 337 338 329 322 305 292 285 279 271 273 271 261 259 263 274 278 275 274 214 232 228 228 239 257 255 242 226 237 248 256
9 316 291 293 317 333 323 322 317 324 333 329 326 324 317 315 305 297 290 282 279 270 262 261 259 260 258 275 279 279 275 261 233 231 227 234 246 254 252 239 226 236 238
350 330 318 318 328 317 316 328 309 304 307 306 296 300 303 295 291 287 284 270 258 271 267 273 261 265 275 277 282 278 270 260 248 234 236 257 260 246 245 244 227 231 229
320 344 328 288 286 295 294 317 313 311 313 314 309 303 290 292 280 278 275 274 269 273 262 265 264 260 263 267 276 274 268 262 259 249 246 244 260 252 246 239 206 214 211
327 310 296 290 308 322 343 327 324 317 315 307 311 304 295 296 301 295 287 276 267 268 266 267 274 269 264 272 274 272 267 262 254 248 245 243 253 251 250 249 246 230 222
303 303 278 306 316 312 316 324 314 311 309 306 299 294 298 300 300 294 290 288 275 270 277 272 277 278 274 268 274 275 273 271 270 256 244 239 244 246 251 249 240 224 208
301 268 325 309 294 300 312 293 296 310 303 296 290 289 286 294 289 300 291 287 274 266 273 274 271 268 267 262 260 259 262 271 277 281 272 290 250 235 236 246 245 138 152
289 297 305 299 306 305 300 293 303 299 293 292 292 291 290 286 286 278 276 277 270 265 267 261 253 254 253 252 258 253 245 240 247 253 235 243 240 250 259 226 172 155 161
315 319 314 308 305 302 295 295 291 295 291 301 297 293 299 292 288 291 289 286 290 292 291 290 287 280 279 274 270 266 257 256 251 243 222 228 227 226 217 217 165 172 178